This demonstration page uses our WeatherBlox Daily Observations layout. Learn more.

Left ArrowRight Arrow

41.55636, -103.73856

Hourly Observations for May 29, 2020

Temp ( °F °C ) Dew Point ( °F °C ) Humidity (%) Winds ( mph kmh ) Pressure ( in mb ) Visibility ( mi km ) Precip ( " mm )
12:58 am 00:58 Clear 65 18.4 50 9.9 58 58 E 6 9 30.21 1023 10 16 N/A
1:58 am 01:58 Clear 61 16 49 9.7 66 66 E 6 9 30.22 1023 10 16 N/A
2:58 am 02:58 Partly Cloudy 58 14.4 49 9.3 72 72 ESE 8 13 30.23 1024 10 16 N/A
3:58 am 03:58 Clear 56 13.6 48 8.7 72 72 SE 10 17 30.24 1024 10 16 N/A
4:58 am 04:58 Clear 55 12.8 46 8 73 73 SE 12 19 30.24 1024 10 16 N/A
5:58 am 05:58 Mostly Clear 55 12.5 46 7.7 73 73 SE 13 20 30.23 1024 10 16 N/A
6:58 am 06:58 Clear 54 12.2 45 7.4 73 73 SSE 15 24 30.23 1024 10 16 N/A
7:58 am 07:58 Clear 53 11.5 45 7.1 75 75 SE 13 20 30.22 1023 10 16 N/A
8:58 am 08:58 Clear 53 11.4 45 7 75 75 ESE 6 9 30.19 1022 10 16 N/A
9:58 am 09:58 Clear 53 11.7 43 6.3 70 70 ESE 10 17 30.18 1022 10 16 N/A
10:58 am 10:58 Mostly Cloudy 48 8.9 43 5.9 82 82 E 7 11 30.18 1022 10 16 N/A
11:58 am 11:58 Sunny 47 8.4 43 6.1 86 86 E 9 15 30.19 1022 10 16 N/A
12:58 pm 12:58 Sunny 53 11.7 45 7.3 75 75 ESE 6 9 30.18 1022 10 16 N/A
1:58 pm 13:58 Sunny 58 14.4 46 7.8 65 65 SE 10 17 30.17 1022 10 16 N/A
2:58 pm 14:58 Sunny 62 16.4 48 8.9 61 61 SE 9 15 30.17 1022 10 16 N/A
3:58 pm 15:58 Sunny 67 19.2 49 9.7 54 54 SE 10 17 30.15 1021 10 16 N/A
4:58 pm 16:58 Sunny 70 21 50 10.1 50 50 SSE 12 19 30.12 1020 10 16 N/A
5:58 pm 17:58 Sunny 74 23.5 52 11 45 45 SSE 10 17 30.09 1019 10 16 N/A
6:58 pm 18:58 Sunny 78 25.3 51 10.6 40 40 SSE 14 22 30.05 1018 10 16 N/A
7:58 pm 19:58 Sunny 80 26.9 50 9.9 34 34 SSE 9 15 30.04 1017 10 16 N/A
8:58 pm 20:58 Sunny 82 28 50 10.2 33 33 SE 15 24 30.01 1016 10 16 N/A
9:58 pm 21:58 Sunny 84 28.7 50 9.8 31 31 SE 14 22 30.00 1016 10 16 N/A
10:58 pm 22:58 Sunny 83 28.5 50 9.9 31 31 SE 15 24 30.00 1016 10 16 N/A
11:58 pm 23:58 Sunny 78 25.8 49 9.3 35 35 SE 13 20 30.01 1016 10 16 N/A

Powered by AerisWeather